Regional Weather Roundup
Issued by NWS Boston, MA

Current Version | Previous Version | Text Only | Print | Product List | Glossary Off
Versions: 1 2 3 4 5 6 7 8 9 10 11 12 13 14 15 16 17 18 19 20 21 22 23 24 25 26 27 28 29 30 31 32 33 34 35 36 37 38 39 40 41 42 43 44 45 46 47 48 49 50
000 ASUS41 KBOX 191310 RWRBOX REGIONAL WEATHER ROUNDUP NATIONAL WEATHER SERVICE BOSTON/NORTON MA 900 AM EDT SUN AUG 19 2018 NOTE: "FAIR" INDICATES FEW OR NO CLOUDS BELOW 12,000 FEET WITH NO SIGNIFICANT WEATHER AND/OR OBSTRUCTIONS TO VISIBILITY. MAZALL-191400- EASTERN MASSACHUSETTS CITY SKY/WX TMP DP RH WIND PRES REMARKS BOSTON PTSUNNY 70 60 70 NE16G24 30.00R BEVERLY PTSUNNY 68 61 78 NE13G20 30.01R LAWRENCE FAIR 70 60 70 NE8 30.04R BEDFORD FAIR 69 60 73 NE13 30.01R BLUE HILL N/A 65 60 84 NE14G29 30.00R NORWOOD PTSUNNY 70 61 73 NE13G20 29.99S MARSHFIELD PTSUNNY 68 63 83 NE13G22 29.99R PLYMOUTH CLOUDY 67 61 81 NE10 29.98R TAUNTON CLOUDY 68 62 81 NE10G18 29.97R NEW BEDFORD CLOUDY 67 64 90 N14 29.95R $$ MAZALL-191400- CAPE COD AND THE ISLANDS CITY SKY/WX TMP DP RH WIND PRES REMARKS FALMOUTH CLOUDY 66 63 88 NE16G26 29.97R HYANNIS CLOUDY 68 62 81 NE13 29.94R CHATHAM CLOUDY 68 61 78 NE10G21 29.96R PROVINCETOWN CLOUDY 66 62 87 NE13 29.98R NANTUCKET CLOUDY 67 64 90 NE13 29.94R MARTHAS VNYRD CLOUDY 68 63 84 NE15G23 29.94R $$ MAZALL-191400- CENTRAL AND WESTERN MASSACHUSETTS CITY SKY/WX TMP DP RH WIND PRES REMARKS WORCESTER FAIR 64 58 80 NE13G24 30.02R FITCHBURG FAIR 66 58 75 NE9G16 30.04R ORANGE PTSUNNY 69 60 73 NE5 30.04R SPRINGFIELD PTSUNNY 69 60 73 NE9G18 30.00R WESTFIELD CLOUDY 69 61 75 N10 30.01R NORTH ADAMS FAIR 69 57 65 E9G17 30.03R PITTSFIELD FAIR 68 56 65 NE9 30.03R $$ RIZALL-191400- RHODE ISLAND CITY SKY/WX TMP DP RH WIND PRES REMARKS PROVIDENCE CLOUDY 69 61 75 NE17G23 29.98S NEWPORT CLOUDY 67 62 84 N12 N/A BLOCK ISLAND CLOUDY 67 63 87 NE13G22 29.96R SMITHFIELD CLOUDY 66 61 84 NE12 29.99S WESTERLY CLOUDY 67 65 93 N7 29.96R $$ CTZALL-191400- CONNECTICUT CITY SKY/WX TMP DP RH WIND PRES REMARKS BRADLEY INTL PTSUNNY 69 62 78 NE13 29.99S HARTFORD CLOUDY 70 62 76 N9G20 29.98R BRIDGEPORT CLOUDY 69 63 81 NE12 29.96R DANBURY PTSUNNY 67 60 78 NE8 29.99R GROTON CLOUDY 67 63 87 NE10 29.95R NEW HAVEN CLOUDY 69 64 84 NE9G17 29.96S CHESTER FAIR 68 63 83 NE10 29.97S MERIDEN CLOUDY 68 61 78 N8 29.98R WILLIMANTIC CLOUDY 69 62 78 NE14G21 29.98S OXFORD CLOUDY 65 60 84 NE14G22 29.99R $$ MEZ002-015-021-024-NHZ003-005-008-011-012-014-VTZ005-008-191400- NORTHERN NEW ENGLAND CITY SKY/WX TMP DP RH WIND PRES REMARKS PORTLAND ME FAIR 69 58 67 NE13 30.05R BANGOR ME FAIR 65 57 75 NE12G18 30.08R CONCORD NH FAIR 70 60 70 NE5 30.04R MANCHESTER NH PTSUNNY 69 60 73 NE9 30.02R NASHUA NH FAIR 68 63 84 NE6 30.04R PORTSMOUTH NH PTSUNNY 68 60 74 NE8 30.02R JAFFREY NH FAIR 66 61 84 MISG 30.06R KEENE NH FAIR N/A N/A N/A VRB3 30.04R BURLINGTON VT FAIR 63 61 93 CALM 30.07R MT. WASHINGTON FOG 43 43 100 E26G32 N/A VSB 0 $$ NYZ052-076-191400- EASTERN NEW YORK CITY SKY/WX TMP DP RH WIND PRES REMARKS ALBANY PTSUNNY 71 61 70 NE6 30.03R NEW YORK CITY LGT RAIN 70 64 81 NE20 29.95R $$ ANZALL-191400- MARINE OBSERVATIONS STATION/POSITION TIME TEMP WIND PRES VSBY WAVE AIR SEA DIR/SP/G HT/PER (UTC) (F) (DEG/KT/KT) (MB) (MI) (FT/S) BOSTON BUOY 1250 67 69 50/ 17/ 21 1014.8R 4/ 6 BUZZARDS BAY 1200 67 40/ 26/ 28 1013.6R NANTUCKET SOUND 1250 69 76 40/ 19/ 23 1013.7R 2/ 3 MASS BAY-STELLWA 1204 67 68 50/ 17/ 21 1013.5R 1 7/8 4/ 5 ISLE OF SHOALS 1200 64 20/ 15/ 16 1015.5R S OF BLOCK IS 1243 76 N/A 5/ 5 $$ ......................KEY......................... SKY/WX - SKY CONDITION/PRESENT WEATHER TMP - TEMPERATURE IN FAHRENHEIT DWPT - DEWPOINT IN FAHRENHEIT RH - RELATIVE HUMIDITY IN PERCENT WIND - DIRECTION AND SPEED IN MPH PRES - MEAN SEA LEVEL PRESSURE IN INCHES OF HG WCI - WIND CHILL INDEX VSB - VISIBILITY IN MILES HX - HEAT INDEX TC - TEMPERATURE IN CELSIUS VRB - VARIABLE WIND DIRECTION N/A - NOT AVAILABLE

USA.gov is the U.S. government's official web portal to all federal, state and local government web resources and services.